AirNav   Everest Fuels
 
 879 users online  

KTNT Dade-Collier Training and Transition Airport
Miami, Florida, USA

GOING TO MIAMI?


FAA INFORMATION EFFECTIVE 02 JANUARY 2020

Location

FAA Identifier: TNT
Lat/Long: 25-51-42.5000N 080-53-49.2000W
25-51.708333N 080-53.820000W
25.8618056,-80.8970000
(estimated)
Elevation: 12.7 ft. / 3.9 m (surveyed)
Variation: 05W (2005)
From city: 36 miles W of MIAMI, FL
Time zone: UTC -5 (UTC -4 during Daylight Saving Time)
Zip code: 34141

Airport Operations

Airport use: Open to the public, ARPT CLSD TO PUBLIC EXCP BY ARRANGEMENT WITH MIAMI-DADE AVIATION DEPT MIAMI 305-869-1660.
Control tower: no
ARTCC: MIAMI CENTER
FSS: MIAMI FLIGHT SERVICE STATION
NOTAMs facility: MIA (NOTAM-D service available)
Attendance: CONTINUOUS
Wind indicator: lighted
Segmented circle: yes
Beacon: white-green (lighted land airport)
Operates sunset to sunrise.
Landing fee: yes

Airport Communications

CTAF/UNICOM: 123.0
WX AWOS-3: 119.075 ((239) 695-9198)
MIAMI APPROACH: 128.6
MIAMI DEPARTURE: 128.6
  • APCH/DEP SVC PRVDD BY MIAMI ATCT ON FREQS 128.6/306.975

Nearby radio navigation aids

VOR radial/distance  VOR name  Freq  Var
DHPr281/29.8DOLPHIN VORTAC113.9004W

Airport Services

Airframe service: NONE
Powerplant service: NONE
Bottled oxygen: NONE
Bulk oxygen: NONE

Runway Information

Runway 9/27

Dimensions: 10499 x 150 ft. / 3200 x 46 m
Surface: asphalt/porous friction courses, in good condition
Weight bearing capacity: 
PCN 65 /F/A/X/T
Single wheel: 130.0
Double wheel: 200.0
Double tandem: 400.0
Dual double tandem: 800.0
Runway edge lights: high intensity
RUNWAY 9  RUNWAY 27
Latitude: 25-51.708232N25-51.707022N
Longitude: 080-54.777252W080-52.861753W
Elevation: 12.6 ft.12.4 ft.
Traffic pattern: leftright
Runway heading: 095 magnetic, 090 true275 magnetic, 270 true
Markings: precision, in good conditionprecision, in good condition
Approach lights: MALSR: 1,400 foot medium intensity approach lighting system with runway alignment indicator lights
Touchdown point: yes, no lightsyes, no lights
Instrument approach: ILS
Obstructions: none26 ft. trees, 1075 ft. from runway, 290 ft. right of centerline, 34:1 slope to clear

Airport Ownership and Management from official FAA records

Ownership: Publicly-owned
Owner: MIAMI-DADE COUNTY
MIAMI-DADE AVIATION DEPARTMENT, P.O. BOX 025504
MIAMI, FL 33102-5504
Phone (305) 876-0464
Manager: NELSON MEJIAS
14201 NORTHWEST LEJEUNE ROAD
OPA-LOCKA, FL 33054
Phone (305) 869-1662
AIRPORT PHYSICAL ADDRESS: 54757 EAST TAMIAMI TRAIL, OCHOPPI, FL 34141 239-695-3300, FAX: 305-876-0565

Airport Operational Statistics

Aircraft operations: avg 40/day *
100% transient general aviation
* for 12-month period ending 10 October 2018

Additional Remarks

A100 ACR TRNG OPNS ONLY.
THREE 8IN WELLS FLUSH MTD BTN RWY AND TWY.
FEE FOR USE FOR ACFT OVER 12500 LBS.
MAEW IN BUFFER ISLAND BTN RY 09/27 & TWY.
WILDLIFE OCCASIONALLY ON & INVOF ARPT.
BE ALERT TO LOW FLYING NATIONAL PARK SVC ACFT ALL QUADRANTS.
NO NGT TIME OPNS EXC WITH PRIOR PMSN FM MIAMI-DADE AVN DEPT 305-869-1660.
FOR CD IF UNA TO CTC ON FSS FREQ, CTC MIAMI APCH AT 305-869-5432.

Instrument Procedures

NOTE: All procedures below are presented as PDF files. If you need a reader for these files, you should download the free Adobe Reader.

NOT FOR NAVIGATION. Please procure official charts for flight.
FAA instrument procedures published for use from 02 January 2020 at 0901Z to 30 January 2020 at 0900Z.

 
IAPs - Instrument Approach Procedures
RNAV (GPS) RWY 09   download (227KB)

Other nearby airports with instrument procedures:

KTMB - Miami Executive Airport (28 nm SE)
X51 - Miami Homestead General Aviation Airport (29 nm SE)
KMIA - Miami International Airport (33 nm E)
KOPF - Miami-Opa Locka Executive Airport (34 nm E)
KHST - Homestead Air Reserve Base (36 nm SE)
 
Loc | Ops | Rwys | IFR | FBO | Links
Com | Nav | Svcs | Stats | Notes


 
Area around KTNT (Dade-Collier Training and Transition Airport)
 
Road maps at: MapQuest Bing Google
 
Aerial photo
WARNING: Photo may not be current or correct
Aerial photo of KTNT (Dade-Collier Training and Transition Airport)
Do you have a better or more recent aerial photo of Dade-Collier Training and Transition Airport that you would like to share? If so, please send us your photo.

 
Sectional chart

 
Airport distance calculator
Flying to Dade-Collier Training and Transition Airport? Find the distance to fly.

From to KTNT

Sunrise and sunset
Times for 27-Jan-2020
 Local
(UTC-5)
 Zulu
(UTC)
Morning civil twilight06:4611:46
Sunrise07:1112:11
Sunset18:0223:02
Evening civil twilight18:2723:27

Current date and time
Zulu (UTC)  27-Jan-2020 10:15:21
Local (UTC-5)  27-Jan-2020 05:15:21
 
METAR
KTMB 
28nm SE 
270953Z AUTO 00000KT 10SM CLR 14/12 A2997 RMK AO2 SLP147 T01390122
KMIA 
32nm E 
270953Z 36003KT 10SM FEW032 FEW046 SCT220 17/10 A2997 RMK AO2 SLP148 T01720100 $
KOPF 
33nm E 
270253Z 00000KT 10SM SKC 17/08 A3004
KHWO 
37nm E 
270953Z AUTO 34003KT 10SM CLR 16/11 A2998 RMK AO2 SLP152 T01610106
KHST 
37nm SE 
270956Z AUTO 34003KT 10SM FEW230 15/11 A2994 RMK AO2 SLP142 T01510109 $
KFLL 
42nm E 
270953Z 35003KT 10SM SCT037 BKN200 16/11 A2996 RMK AO2 SLP145 T01560106 $
KMKY 
43nm W 
270956Z AUTO 00000KT 10SM BKN120 13/09 A2999 RMK AO2 SLP155 T01330094 TSNO $
KFXE 
43nm NE 
270953Z 00000KT 10SM CLR 16/10 A2996 RMK AO2 SLP148 T01560100
KIMM 
44nm NW 
270955Z AUTO 00000KT 10SM CLR 12/10 A2999 RMK AO2
KPMP 
48nm NE 
270953Z AUTO 00000KT 10SM CLR 16/10 A2996 RMK AO2 SLP148 T01610100
TAF
KTMB 
28nm SE 
270520Z 2706/2806 VRB02KT P6SM FEW050 FM271500 15007KT P6SM SCT050 BKN150 FM272100 23007KT P6SM FEW030 SCT050 BKN090 FM280000 27003KT P6SM SCT030 BKN050
KMIA 
32nm E 
270520Z 2706/2812 VRB03KT P6SM FEW050 FM271500 16007KT P6SM SCT050 BKN150 FM272100 23007KT P6SM FEW030 SCT050 BKN090 FM280000 27003KT P6SM SCT030 BKN050 FM280900 32005KT P6SM FEW030 SCT080 BKN120
KOPF 
33nm E 
270520Z 2706/2806 VRB03KT P6SM FEW050 FM271500 16007KT P6SM SCT050 BKN150 FM272100 23007KT P6SM FEW030 SCT050 BKN090 FM280000 27003KT P6SM SCT030 BKN050
NOTAMs
Click for the latest NOTAMs
NOTAMs are issued by the DoD/FAA and will open in a separate window not controlled by AirNav.

 

 
 

Would you like to see your business listed on this page?

 If your business provides an interesting product or service to pilots, flight crews, aircraft, or users of the Dade-Collier Training and Transition Airport, you should consider listing it here.  To start the listing process, click on the button below
 
Add a business
 

Other Pages about Dade-Collier Training and Transition Airport

Update a link
 
Copyright © AirNav, LLC. All rights reserved. Privacy Policy  Contact